Terminal Aerodrome Forecast
Issued by NWS Cheyenne, WY

Home | Current Version | Previous Version | Text Only | Print | Product List | Glossary On
Versions: 1 2 3 4 5 6 7 8 9 10 11 12 13 14 15 16
000
FTUS45 KCYS 291132
TAFCYS
TAF
KCYS 291132Z 2912/3012 25008KT P6SM SCT100
     FM292100 14012G18KT P6SM VCTS BKN100CB
     FM300200 27008KT P6SM SCT100=

USA.gov is the U.S. government's official web portal to all federal, state and local government web resources and services.